Regional Weather Roundup
Issued by NWS

Home | Current Version | Previous Version | Text Only | Print | Product List | Glossary On
Versions: 1 2 3 4 5 6 7 8 9 10 11 12 13 14 15 16 17 18 19 20 21 22 23 24 25 26 27 28 29 30 31 32 33 34 35 36 37 38 39 40 41 42 43 44 45 46 47 48 49 50
000
ASUS43 KLMK 051510
RWRKY
KENTUCKY REGIONAL WEATHER ROUNDUP
NATIONAL WEATHER SERVICE LOUISVILLE KY
1100 AM EDT TUE MAY 05 2015

NOTE "FAIR" INDICATES FEW OR NO CLOUDS BELOW 12,000 FEET
WITH NO SIGNIFICANT WEATHER AND/OR OBSTRUCTIONS TO VISIBILITY.

KYZ001>023-026-027-061>063-070>075-051600-
WESTERN AND SOUTH CENTRAL KENTUCKY

CITY           SKY/WX    TMP DP  RH WIND       PRES   REMARKS
PADUCAH        SUNNY     78  56  46 SW7       30.23F
HENDERSON      SUNNY     79  52  38 SW14G21   30.24S
OWENSBORO      SUNNY     79  59  50 SW9       30.27S
HOPKINSVILLE   SUNNY     78  58  50 SW13      30.27S
BOWLING GREEN  SUNNY     76  56  49 SW7       30.30S
GLASGOW        SUNNY     75  56  51 SW7       30.31S
$$

KYZ024-025-028>034-038-045-046-053-051600-
NORTH CENTRAL KENTUCKY

CITY           SKY/WX    TMP DP  RH WIND       PRES   REMARKS
LOUISVILLE/SDF MOSUNNY   79  56  45 SW7       30.27S
LOUISVILLE/LOU SUNNY     77  56  48 VRB7      30.28S
FORT KNOX      MOSUNNY   78  58  49 SW10      30.27S
$$

KYZ035>037-039>044-047>052-055>060-089>105-051600-
NORTHEAST KENTUCKY

CITY           SKY/WX    TMP DP  RH WIND       PRES   REMARKS
LEXINGTON      SUNNY     76  56  49 SW9       30.31S
COVINGTON      MOSUNNY   76  56  49 W8        30.28R
FRANKFORT      SUNNY     77  55  46 SW9       30.28S
$$

KYZ054-064>069-076>088-106>120-051600-
SOUTHEAST KENTUCKY

CITY           SKY/WX    TMP DP  RH WIND       PRES   REMARKS
JACKSON        SUNNY     74  56  53 VRB3      30.35R
LONDON         SUNNY     76  51  41 W5        30.34S
SOMERSET       SUNNY     73  54  49 W6        30.34S
MIDDLESBORO    SUNNY     70  57  62 CALM      30.36S
MONTICELLO     SUNNY     78  57  48 CALM      30.36R
$$




USA.gov is the U.S. government's official web portal to all federal, state and local government web resources and services.